Regional Weather Roundup
Issued by NWS

Home | Current Version | Previous Version | Graphics & Text | Print | Product List | Glossary On
Versions: 1 2 3 4 5 6 7 8 9 10 11 12 13 14 15 16 17 18 19 20 21 22 23 24 25 26 27 28 29 30 31 32 33 34 35 36 37 38 39 40 41 42 43 44 45 46 47 48 49 50
000
ASUS43 KBIS 280710
RWRND

NORTH DAKOTA REGIONAL WEATHER ROUNDUP
NATIONAL WEATHER SERVICE BISMARCK ND
200 AM CDT TUE JUL 28 2015

NOTE: "FAIR" INDICATES FEW OR NO CLOUDS BELOW 12,000 FEET WITH NO
SIGNIFICANT WEATHER AND/OR OBSTRUCTIONS TO VISIBILITY.


NDZ001>003-009>011-017-280800-
NORTHWEST NORTH DAKOTA

CITY           SKY/WX    TMP DP  RH WIND       PRES   REMARKS
WILLISTON      MOCLDY    63  60  90 S10       29.59R
MINOT          CLOUDY    73  59  61 SW17      29.52F
MINOT AFB      CLOUDY    71  64  76 SW17      29.51F
$$

NDZ018>021-031>035-040>046-280800-
SOUTHWEST NORTH DAKOTA

CITY           SKY/WX    TMP DP  RH WIND       PRES   REMARKS
BISMARCK       CLOUDY    70  62  76 NW7       29.62R
DICKINSON      MOCLDY    60  56  86 W20       29.68F
GARRISON         N/A     68  62  81 W8        29.59F
HETTINGER ARPT PTCLDY    59  54  83 W16       29.75F
$$

NDZ004>008-012>016-024-026-027-054-280800-
NORTHEAST NORTH DAKOTA

CITY           SKY/WX    TMP DP  RH WIND       PRES   REMARKS
GRAND FORKS    PTCLDY    73  70  90 SE10      29.68F
GRND FRKS AFB  PTCLDY    74  71  90 S14       29.68F
DEVILS LAKE    CLOUDY    77  68  73 SE21      29.60F
$$

NDZ022-023-025-028>030-036>039-047>053-280800-
SOUTHEAST NORTH DAKOTA

CITY           SKY/WX    TMP DP  RH WIND       PRES   REMARKS
FARGO          CLEAR     78  71  79 SE18      29.69F
JAMESTOWN      TSTM      76  71  85 SW18G28   29.66S
$$



USA.gov is the U.S. government's official web portal to all federal, state and local government web resources and services.